• In Deutschland
  • Länderverzeichnis
  • Für 7 Tage
  • Wassertemperatur
  • Satellitenkarten
  • Wetterkarte
  • Widgets
  • user-avatar
    Anmelden

    Stündliche Wetter Goslar

    Heute, 22 September, Samstag

    Zeit Temperatur Niederschläge Wind Luftdruck Luftfeuchtigkeit
    00:00 +9°C° 0 mm 6 m/S 732 mmHg 68%
    01:00 +8°C° 0 mm 5 m/S 733 mmHg 72%
    02:00 +8°C° 0 mm 5 m/S 733 mmHg 72%
    03:00 +8°C° 0 mm 6 m/S 733 mmHg 72%
    04:00 +8°C° 0 mm 7 m/S 734 mmHg 73%
    05:00 +8°C° 0 mm 6 m/S 734 mmHg 74%
    06:00 +8°C° 0 mm 6 m/S 735 mmHg 75%
    07:00 +8°C° 0 mm 5 m/S 735 mmHg 77%
    08:00 +10°C° 0 mm 6 m/S 735 mmHg 71%
    09:00 +11°C° 0 mm 6 m/S 736 mmHg 66%
    10:00 +12°C° 0 mm 7 m/S 736 mmHg 61%
    11:00 +14°C° 0 mm 7 m/S 736 mmHg 58%
    12:00 +15°C° 0 mm 7 m/S 736 mmHg 54%
    13:00 +15°C° 0 mm 6 m/S 736 mmHg 50%
    14:00 +15°C° 0.1 mm 6 m/S 736 mmHg 51%
    15:00 +15°C° 0.1 mm 6 m/S 736 mmHg 53%
    16:00 +14°C° 0.1 mm 6 m/S 736 mmHg 54%
    17:00 +13°C° 0.1 mm 5 m/S 735 mmHg 61%
    18:00 +12°C° 0.1 mm 5 m/S 735 mmHg 68%
    19:00 +11°C° 0.1 mm 4 m/S 735 mmHg 75%
    20:00 +10°C° 0.1 mm 4 m/S 735 mmHg 78%
    21:00 +10°C° 0.1 mm 4 m/S 735 mmHg 81%
    22:00 +10°C° 0.1 mm 3 m/S 736 mmHg 84%
    23:00 +9°C° 0.1 mm 3 m/S 735 mmHg 86%

    Morgen, 23 September, Sonntag

    Zeit Temperatur Niederschläge Wind Luftdruck Luftfeuchtigkeit
    00:00 +9°C° 0.1 mm 3 m/S 735 mmHg 87%
    01:00 +9°C° 0.1 mm 3 m/S 735 mmHg 88%
    02:00 +9°C° 0.1 mm 2 m/S 735 mmHg 89%
    03:00 +9°C° 0.1 mm 2 m/S 735 mmHg 90%
    04:00 +9°C° 0.1 mm 2 m/S 734 mmHg 90%
    05:00 +9°C° 0.1 mm 2 m/S 734 mmHg 90%
    06:00 +10°C° 0.1 mm 1 m/S 734 mmHg 90%
    07:00 +10°C° 0.1 mm 1 m/S 733 mmHg 90%
    08:00 +11°C° 0.1 mm 1 m/S 733 mmHg 88%
    09:00 +11°C° 0.1 mm 1 m/S 733 mmHg 86%
    10:00 +11°C° 0.1 mm 1 m/S 733 mmHg 84%
    11:00 +12°C° 0.2 mm 1 m/S 732 mmHg 83%
    12:00 +12°C° 0.2 mm 2 m/S 731 mmHg 82%
    13:00 +12°C° 0.2 mm 2 m/S 731 mmHg 82%
    14:00 +10°C° 2.8 mm 3 m/S 730 mmHg 86%
    15:00 +10°C° 2.8 mm 3 m/S 729 mmHg 90%
    16:00 +8°C° 2.8 mm 4 m/S 728 mmHg 94%
    17:00 +8°C° 3 mm 4 m/S 728 mmHg 93%
    18:00 +7°C° 3 mm 4 m/S 728 mmHg 93%
    19:00 +7°C° 3 mm 5 m/S 728 mmHg 92%
    20:00 +7°C° 1.2 mm 5 m/S 730 mmHg 92%
    21:00 +7°C° 1.2 mm 5 m/S 731 mmHg 91%
    22:00 +7°C° 1.2 mm 5 m/S 733 mmHg 91%
    23:00 +7°C° 0.2 mm 5 m/S 734 mmHg 90%

    übermorgen, 24 September, Montag

    Zeit Temperatur Niederschläge Wind Luftdruck Luftfeuchtigkeit
    00:00 +6°C° 0.2 mm 5 m/S 735 mmHg 89%
    01:00 +6°C° 0.2 mm 5 m/S 736 mmHg 88%
    02:00 +6°C° 0 mm 5 m/S 736 mmHg 88%
    03:00 +5°C° 0 mm 5 m/S 737 mmHg 89%
    04:00 +5°C° 0 mm 5 m/S 738 mmHg 89%
    05:00 +5°C° 0 mm 5 m/S 739 mmHg 88%
    06:00 +5°C° 0 mm 5 m/S 740 mmHg 87%
    07:00 +5°C° 0 mm 5 m/S 741 mmHg 87%
    08:00 +5°C° 0 mm 6 m/S 742 mmHg 78%
    09:00 +8°C° 0 mm 6 m/S 742 mmHg 70%
    10:00 +9°C° 0 mm 7 m/S 743 mmHg 62%
    11:00 +9°C° 0.2 mm 7 m/S 743 mmHg 61%
    12:00 +10°C° 0.2 mm 8 m/S 744 mmHg 60%
    13:00 +10°C° 0.2 mm 8 m/S 744 mmHg 59%
    14:00 +10°C° 0.2 mm 7 m/S 744 mmHg 59%
    15:00 +10°C° 0.2 mm 7 m/S 744 mmHg 60%
    16:00 +10°C° 0.2 mm 7 m/S 744 mmHg 60%
    17:00 +8°C° 0 mm 6 m/S 745 mmHg 64%
    18:00 +7°C° 0 mm 4 m/S 745 mmHg 67%
    19:00 +7°C° 0 mm 3 m/S 746 mmHg 71%
    20:00 +5°C° 0 mm 3 m/S 746 mmHg 72%
    21:00 +5°C° 0 mm 3 m/S 747 mmHg 74%
    22:00 +5°C° 0 mm 2 m/S 747 mmHg 75%
    23:00 +5°C° 0 mm 2 m/S 748 mmHg 78%

    25 September, Dienstag

    Zeit Temperatur Niederschläge Wind Luftdruck Luftfeuchtigkeit
    00:00 +4°C° 0 mm 2 m/S 748 mmHg 80%
    01:00 +4°C° 0 mm 2 m/S 748 mmHg 82%
    02:00 +4°C° 0 mm 2 m/S 748 mmHg 84%
    03:00 +4°C° 0 mm 2 m/S 749 mmHg 86%
    04:00 +3°C° 0 mm 2 m/S 749 mmHg 87%
    05:00 +3°C° 0 mm 2 m/S 749 mmHg 87%
    06:00 +3°C° 0 mm 2 m/S 749 mmHg 87%
    07:00 +4°C° 0 mm 2 m/S 750 mmHg 87%
    08:00 +6°C° 0 mm 2 m/S 750 mmHg 78%
    09:00 +8°C° 0 mm 2 m/S 751 mmHg 69%
    10:00 +10°C° 0 mm 2 m/S 751 mmHg 60%
    11:00 +12°C° 0 mm 2 m/S 751 mmHg 56%
    12:00 +13°C° 0 mm 2 m/S 751 mmHg 52%
    13:00 +13°C° 0 mm 2 m/S 751 mmHg 48%
    14:00 +13°C° 0 mm 1 m/S 750 mmHg 48%
    15:00 +13°C° 0 mm 1 m/S 750 mmHg 48%
    16:00 +13°C° 0 mm 1 m/S 750 mmHg 49%
    17:00 +12°C° 0 mm 1 m/S 750 mmHg 55%
    18:00 +10°C° 0 mm 1 m/S 749 mmHg 61%
    19:00 +7°C° 0 mm 0 m/S 749 mmHg 67%
    20:00 +8°C° 0 mm 1 m/S 749 mmHg 68%
    21:00 +7°C° 0 mm 1 m/S 749 mmHg 69%
    22:00 +7°C° 0 mm 1 m/S 750 mmHg 71%
    23:00 +7°C° 0 mm 1 m/S 749 mmHg 70%

    26 September, Mittwoch

    Zeit Temperatur Niederschläge Wind Luftdruck Luftfeuchtigkeit
    00:00 +5°C° 0 mm 2 m/S 749 mmHg 70%
    01:00 +5°C° 0 mm 2 m/S 749 mmHg 69%
    02:00 +5°C° 0 mm 2 m/S 748 mmHg 68%
    03:00 +4°C° 0 mm 2 m/S 748 mmHg 67%
    04:00 +4°C° 0 mm 2 m/S 747 mmHg 66%
    05:00 +4°C° 0 mm 2 m/S 747 mmHg 66%
    06:00 +4°C° 0 mm 2 m/S 747 mmHg 65%
    07:00 +4°C° 0 mm 2 m/S 747 mmHg 64%
    08:00 +7°C° 0 mm 3 m/S 747 mmHg 59%
    09:00 +9°C° 0 mm 3 m/S 746 mmHg 53%
    10:00 +11°C° 0 mm 3 m/S 746 mmHg 48%
    11:00 +13°C° 0 mm 4 m/S 746 mmHg 45%
    12:00 +14°C° 0 mm 4 m/S 746 mmHg 42%
    13:00 +15°C° 0 mm 4 m/S 745 mmHg 40%
    14:00 +15°C° 0 mm 4 m/S 745 mmHg 41%
    15:00 +15°C° 0 mm 4 m/S 744 mmHg 43%
    16:00 +17°C° 0 mm 4 m/S 744 mmHg 44%
    17:00 +14°C° 0 mm 3 m/S 743 mmHg 50%
    18:00 +12°C° 0 mm 3 m/S 743 mmHg 57%
    19:00 +10°C° 0 mm 3 m/S 743 mmHg 63%
    20:00 +9°C° 0 mm 3 m/S 743 mmHg 64%
    21:00 +9°C° 0 mm 3 m/S 743 mmHg 65%
    22:00 +8°C° 0 mm 3 m/S 743 mmHg 66%
    23:00 +8°C° 0 mm 3 m/S 743 mmHg 66%

    27 September, Donnerstag

    Zeit Temperatur Niederschläge Wind Luftdruck Luftfeuchtigkeit
    00:00 +8°C° 0 mm 3 m/S 742 mmHg 66%
    01:00 +8°C° 0 mm 3 m/S 742 mmHg 65%
    02:00 +7°C° 0 mm 3 m/S 742 mmHg 65%
    03:00 +7°C° 0 mm 3 m/S 741 mmHg 64%
    04:00 +6°C° 0 mm 4 m/S 741 mmHg 64%
    05:00 +6°C° 0 mm 4 m/S 741 mmHg 63%
    06:00 +6°C° 0 mm 4 m/S 741 mmHg 63%
    07:00 +6°C° 0 mm 4 m/S 740 mmHg 63%
    08:00 +8°C° 0 mm 5 m/S 740 mmHg 59%
    09:00 +12°C° 0 mm 5 m/S 740 mmHg 54%
    10:00 +14°C° 0 mm 6 m/S 740 mmHg 49%
    11:00 +15°C° 0 mm 6 m/S 739 mmHg 47%
    12:00 +16°C° 0 mm 6 m/S 739 mmHg 46%
    13:00 +17°C° 0 mm 7 m/S 738 mmHg 44%
    14:00 +17°C° 0 mm 7 m/S 738 mmHg 47%
    15:00 +17°C° 0 mm 6 m/S 737 mmHg 50%
    16:00 +17°C° 0 mm 6 m/S 737 mmHg 53%
    17:00 +16°C° 0.1 mm 6 m/S 737 mmHg 60%
    18:00 +15°C° 0.1 mm 6 m/S 737 mmHg 67%
    19:00 +14°C° 0.1 mm 5 m/S 737 mmHg 74%
    20:00 +13°C° 0.2 mm 5 m/S 738 mmHg 78%
    21:00 +12°C° 0.2 mm 5 m/S 738 mmHg 82%
    22:00 +11°C° 0.2 mm 4 m/S 739 mmHg 86%
    23:00 +10°C° 0.1 mm 4 m/S 739 mmHg 87%
    Mehr zeigen